Location: New Town
(33.2710°N, 90.7534°W)
Time: 13:08:34
(UTC+00:00)

Explorer 7 - All Passes

Search period start: 13 May 2021 00:00
Search period end: 23 May 2021 00:00
Orbit: 484 x 677 km, 50.3° (Epoch: 13 May)

Date Brightness Start Highest point End Pass type
(mag) Time Alt. Az. Time Alt. Az. Time Alt. Az.
13 May - 01:21:02 10° W 01:23:41 17° SW 01:26:25 10° S visible
13 May - 15:18:03 10° S 15:21:18 24° SE 15:24:28 10° ENE daylight
13 May - 16:58:04 10° WSW 17:01:37 34° NW 17:05:05 10° NNE daylight
13 May - 22:04:45 10° N 22:07:03 15° NNE 22:09:24 10° ENE daylight
13 May - 23:44:01 10° NW 23:47:54 88° SW 23:51:59 10° SE daylight
14 May - 15:21:47 10° SSW 15:25:36 45° SE 15:29:16 10° ENE daylight
14 May - 17:03:06 10° W 17:06:10 22° NNW 17:09:09 10° NNE daylight
14 May - 22:08:39 10° NNW 22:11:41 22° NNE 22:14:47 10° E daylight
14 May - 23:48:31 10° WNW 23:52:15 47° SW 23:56:10 10° SSE daylight
15 May - 15:25:58 10° SW 15:29:57 86° SE 15:33:47 10° NE daylight
15 May - 17:08:30 10° WNW 17:10:48 15° NNW 17:13:03 10° N daylight
15 May - 22:12:43 10° NNW 22:16:13 34° NE 22:19:50 10° ESE daylight
15 May - 23:53:18 10° WNW 23:56:33 25° SW 23:59:56 10° S daylight
16 May - 13:51:37 10° SSE 13:54:11 16° SE 13:56:41 10° E daylight
16 May - 15:30:28 10° WSW 15:34:21 52° NW 15:38:06 10° NE daylight
16 May - 17:14:28 10° NW 17:15:29 11° NNW 17:16:30 10° N daylight
16 May - 20:38:17 10° N 20:39:38 11° NNE 20:40:57 10° NE daylight
16 May - 22:16:56 10° NW 22:20:41 58° NE 22:24:35 10° ESE daylight
16 May - 23:58:43 10° W 00:00:48 14° SW 00:02:56 10° SSW daylight
17 May - 13:54:53 10° SSW 13:58:27 29° SE 14:01:52 10° ENE daylight
17 May - 15:35:17 10° W 15:38:51 31° NW 15:42:17 10° NNE daylight
17 May - 20:41:53 10° NNW 20:44:19 16° NNE 20:46:45 10° ENE daylight
17 May - 22:21:17 10° NW 22:25:04 76° SW 22:29:01 10° SE daylight
18 May - 13:58:44 10° SSW 14:02:46 54° SE 14:06:35 10° ENE daylight
18 May - 15:40:23 10° W 15:43:23 20° NNW 15:46:19 10° NNE daylight
18 May - 20:45:49 10° NNW 20:48:54 24° NNE 20:52:03 10° E daylight
18 May - 22:25:51 10° WNW 22:29:24 39° SW 22:33:06 10° SSE daylight
19 May - 12:26:12 10° SE 12:27:04 11° SE 12:27:54 10° ESE daylight
19 May - 14:03:00 10° SW 14:07:07 82° NW 14:11:02 10° NE daylight
19 May - 15:45:50 10° WNW 15:48:01 14° NNW 15:50:10 10° N daylight
19 May - 20:49:54 10° NNW 20:53:26 38° NE 20:57:02 10° ESE daylight
19 May - 22:30:45 10° W 22:33:41 21° SW 22:36:42 10° S daylight
20 May - 12:28:13 10° S 12:31:17 20° SE 12:34:14 10° E daylight
20 May - 14:07:34 10° WSW 14:11:32 46° NW 14:15:19 10° NE daylight
20 May - 15:52:02 10° NNW 15:52:44 10° NNW 15:53:26 10° N daylight
20 May - 19:15:16 10° N 19:16:52 12° NNE 19:18:29 10° NE daylight
20 May - 20:54:08 10° NW 20:57:52 68° NE 21:01:42 10° SE daylight
20 May - 22:36:38 10° WSW 22:37:55 11° SW 22:39:12 10° SSW daylight
21 May - 12:31:40 10° SSW 12:35:33 35° SE 12:39:14 10° ENE daylight
21 May - 14:12:27 10° W 14:16:01 28° NW 14:19:27 10° NNE daylight
21 May - 19:18:57 10° NNW 19:21:32 17° NNE 19:24:07 10° ENE daylight
21 May - 20:58:31 10° NW 21:02:14 64° SW 21:06:03 10° SE daylight
22 May - 12:35:39 10° SW 12:39:52 64° SE 12:43:51 10° NE daylight
22 May - 14:17:36 10° WNW 14:20:35 19° NNW 14:23:28 10° NNE daylight
22 May - 19:22:55 10° NNW 19:26:07 26° NNE 19:29:20 10° E daylight
22 May - 21:03:09 10° WNW 21:06:33 33° SW 21:10:01 10° SSE daylight
